Regional Weather Roundup
Issued by NWS

Home | Current Version | Previous Version | Text Only | Print | Product List | Glossary On
Versions: 1 2 3 4 5 6 7 8 9 10 11 12 13 14 15 16 17 18 19 20 21 22 23 24 25 26 27 28 29 30 31 32 33 34 35 36 37 38 39 40 41 42 43 44 45 46 47 48 49 50
000
ASUS43 KMKX 271810
RWRWI

WISCONSIN REGIONAL WEATHER ROUNDUP
NATIONAL WEATHER SERVICE MILWAUKEE/SULLIVAN WI
1200 PM CST FRI FEB 27 2015

NOTE: "FAIR" INDICATES FEW OR NO CLOUDS BELOW 12,000 FEET WITH NO
SIGNIFICANT WEATHER AND/OR OBSTRUCTIONS TO VISIBILITY.

WIZ001-002-006>008-014>016-023>028-271900-
NORTHWEST WISCONSIN

CITY           SKY/WX    TMP DP  RH WIND       PRES   REMARKS
SUPERIOR ARPT  SUNNY     13  -3  49 W9        30.49S WCI   0
6HR MIN TEMP: -10; 6HR MAX TEMP:  13;

ASHLAND        SUNNY     12  -7  42 SW9       30.47S WCI   0
6HR MIN TEMP:  -7; 6HR MAX TEMP:  12;

HAYWARD        SUNNY      8  -7  50 SW8       30.46S WCI  -4
6HR MIN TEMP: -19; 6HR MAX TEMP:   8;

SIREN          SUNNY      9  -4  55 SW8G16    30.52S WCI  -3
6HR MIN TEMP: -11; 6HR MAX TEMP:   9;

CUMBERLAND     SUNNY      9  -8  47 W9        30.49S WCI  -5
RICE LAKE      SUNNY      8  -4  58 W8        30.53S WCI  -5
6HR MIN TEMP: -16; 6HR MAX TEMP:   8;

CHETEK         SUNNY      9  -5  53 W3        30.52S
6HR MIN TEMP: -15; 6HR MAX TEMP:   9;

LADYSMITH      SUNNY     10  -6  48 W8        30.49R WCI  -3
6HR MIN TEMP: -19; 6HR MAX TEMP:  10;

EAU CLAIRE     SUNNY      7  -5  57 W12       30.55R WCI  -8
6HR MIN TEMP: -10; 6HR MAX TEMP:   7;

MENOMONIE      SUNNY     11  -3  52 W7        30.55S WCI   1
6HR MIN TEMP:  -7; 6HR MAX TEMP:  11;

NEW RICHMOND   SUNNY     11  -1  56 W10       30.53S WCI  -2
6HR MIN TEMP: -13; 6HR MAX TEMP:  11;

OSCEOLA        SUNNY     13  -1  55 W7        30.57S WCI   2
6HR MIN TEMP: -12; 6HR MAX TEMP:  13;

$$

WIZ003>005-009-010-017-018-271900-
NORTH CENTRAL WISCONSIN

CITY           SKY/WX    TMP DP  RH WIND       PRES   REMARKS
MANITOWISH WTR SUNNY     10  -6  48 W6        30.37S WCI   0
6HR MIN TEMP: -26; 6HR MAX TEMP:  10;

ARBOR VITAE    SUNNY     11  -5  47 SW6       30.37F WCI   2
6HR MIN TEMP: -17; 6HR MAX TEMP:  11;

WOODRUFF       SUNNY     11  -5  47 SW6       30.37F WCI   2
6HR MIN TEMP: -17; 6HR MAX TEMP:  11;

RHINELANDER    SUNNY     10  -5  50 W10       30.39S WCI  -4
6HR MIN TEMP: -22; 6HR MAX TEMP:  10;

EAGLE RIVER    SUNNY     10  -8  43 W9G16     30.36F WCI  -3
6HR MIN TEMP: -21; 6HR MAX TEMP:  10;

LAND O LAKES   SUNNY     14  -8  37 SW9       30.36S WCI   2
6HR MIN TEMP: -30; 6HR MAX TEMP:  14;

PHILLIPS       SUNNY     10  -7  47 W6        30.41S WCI   0
6HR MIN TEMP: -22; 6HR MAX TEMP:  10;

TOMAHAWK       SUNNY     11  -7  45 W5        30.42S WCI   2
6HR MIN TEMP: -22; 6HR MAX TEMP:  11;

MEDFORD        SUNNY      7  -8  50 SW9       30.44F WCI  -7
6HR MIN TEMP: -13; 6HR MAX TEMP:   7;

MERRILL        SUNNY     11  -7  44 W8        30.44S WCI  -1
6HR MIN TEMP: -22; 6HR MAX TEMP:  11;

$$

WIZ029-030-035-036-043>047-271900-
CENTRAL WISCONSIN

CITY           SKY/WX    TMP DP  RH WIND       PRES   REMARKS
WAUSAU         SUNNY      7  -9  48 W12       30.46F WCI  -8
6HR MIN TEMP:  -7; 6HR MAX TEMP:   7;

MOSINEE        SUNNY      9  -8  47 W10G17    30.49R WCI  -6
MARSHFIELD     SUNNY      8  -7  50 W9        30.49S WCI  -5
6HR MIN TEMP: -11; 6HR MAX TEMP:   8;

STEVENS POINT  SUNNY      8 -10  45 W12G18    30.50S WCI  -7
6HR MIN TEMP: -19; 6HR MAX TEMP:   8;

WAUPACA        SUNNY     16  -5  38 W9        30.53S WCI   5
6HR MIN TEMP:  -4; 6HR MAX TEMP:  16;

WAUTOMA        SUNNY     14  -5  42 W13       30.54S WCI   0
6HR MIN TEMP: -12; 6HR MAX TEMP:  14;

WISC RAPIDS    SUNNY     10  -8  44 W10       30.53S WCI  -4
6HR MIN TEMP: -13; 6HR MAX TEMP:  10;

CAMP DOUGLAS   SUNNY     12  -6  44 W9        30.55S WCI   0
$$

WIZ011>013-019>022-031-037>040-048>050-271900-
NORTHEAST WISCONSIN

CITY           SKY/WX    TMP DP  RH WIND       PRES   REMARKS
ANTIGO         SUNNY      9  -6  50 W9        30.41S WCI  -5
6HR MIN TEMP: -14; 6HR MAX TEMP:   9;

SHAWANO        SUNNY     16  -4  40 W12       30.50S WCI   3
6HR MIN TEMP:  -4; 6HR MAX TEMP:  16;

OCONTO         SUNNY     14  -4  44 W13       30.50S WCI   0
6HR MIN TEMP: -12; 6HR MAX TEMP:  14;

STURGEON BAY   SUNNY     12  -6  44 SW13      30.51S WCI  -3
6HR MIN TEMP:  -4; 6HR MAX TEMP:  12;

GREEN BAY      SUNNY     14  -2  49 W13       30.52S WCI   0
6HR MIN TEMP:  -3; 6HR MAX TEMP:  15;

MANITOWOC      SUNNY     16  -2  45 W16       30.54S WCI   1
6HR MIN TEMP:  -2; 6HR MAX TEMP:  16;

APPLETON       SUNNY     12  -4  48 W12       30.52R WCI  -2
CLINTONVILLE   SUNNY     14  -6  41 W13       30.51S WCI   0
OSHKOSH        SUNNY     12  -4  48 W10       30.53S WCI  -1
6HR MIN TEMP:  -3; 6HR MAX TEMP:  12;

$$

WIZ032>034-041-042-053>061-271900-
SOUTHWEST WISCONSIN

CITY           SKY/WX    TMP DP  RH WIND       PRES   REMARKS
LA CROSSE      SUNNY     10  -5  50 CALM      30.60F
6HR MIN TEMP: -10; 6HR MAX TEMP:  10;

SPARTA         SUNNY     12  -7  41 W8        30.58S WCI   1
6HR MIN TEMP: -20; 6HR MAX TEMP:  12;

VIROQUA        SUNNY     10  -6  49 W12       30.54S WCI  -5
6HR MIN TEMP: -10; 6HR MAX TEMP:  10;

BOSCOBEL       SUNNY     12  -5  46 SW7       30.62S WCI   1
6HR MIN TEMP: -16; 6HR MAX TEMP:  12;

PRAIRIE DU CHI SUNNY     10  -7  46 W9        30.63S WCI  -2
6HR MIN TEMP: -16; 6HR MAX TEMP:  11; 6HR PCP:  0.02;

PLATTEVILLE    SUNNY      7  -5  58 S3        30.59S
6HR MIN TEMP: -14; 6HR MAX TEMP:   7;

$$

WIZ056-057-062-063-064-067-068-271900-
SOUTH CENTRAL WISCONSIN

CITY           SKY/WX    TMP DP  RH WIND       PRES   REMARKS
REEDSBURG      SUNNY     11  -5  47 W9        30.56F WCI  -1
6HR MIN TEMP: -14; 6HR MAX TEMP:  11;

BARABOO/DELLS  SUNNY     11  -6  47 W7        30.55S WCI   0
6HR MIN TEMP: -10; 6HR MAX TEMP:  11;

LONE ROCK      SUNNY     11  -6  46 W10       30.60F WCI  -3
6HR MIN TEMP: -13; 6HR MAX TEMP:  11;

MINERAL POINT  SUNNY     10  -6  48 W7        30.56F WCI   0
MADISON        SUNNY     12  -6  44 VRB5      30.57S WCI   4
6HR MIN TEMP:  -5; 6HR MAX TEMP:  12;

MIDDLETON      SUNNY     15  -7  37 W8        30.57S WCI   4
6HR MIN TEMP:  -4; 6HR MAX TEMP:  15;

WATERTOWN      SUNNY     13  -5  45 W8        30.56F WCI   2
6HR MIN TEMP: -10; 6HR MAX TEMP:  13;

MONROE         SUNNY     10  -4  52 W10       30.57S WCI  -3
JANESVILLE     SUNNY     12  -6  44 W8        30.59S WCI   1
$$

WIZ051-052-058>065-066-070>072-271900-
SOUTHEAST WISCONSIN

CITY           SKY/WX    TMP DP  RH WIND       PRES   REMARKS
MILWAUKEE      SUNNY     16  -6  37 W12       30.58R WCI   3
6HR MIN TEMP:   0; 6HR MAX TEMP:  16;

WAUKESHA       SUNNY     10  -8  44 SW9       30.57R WCI  -2
MILWAUKEE/TIMM SUNNY     16  -8  35 W9G17     30.58R WCI   4
RACINE         SUNNY     13  -6  42 W10       30.60S WCI   0
6HR MIN TEMP:  -3; 6HR MAX TEMP:  13;

BURLINGTON     SUNNY     12  -7  41 SW10      30.59S WCI  -1
KENOSHA        SUNNY     12  -5  46 W12       30.59R WCI  -2
6HR MIN TEMP:  -9; 6HR MAX TEMP:  13;

FOND DU LAC    SUNNY     13  -5  44 SW12      30.54F WCI  -1
6HR MIN TEMP:  -7; 6HR MAX TEMP:  13; 6HR PCP: TRACE;

SHEBOYGAN      SUNNY     13  -4  46 W13       30.54S WCI  -2
6HR MIN TEMP:  -5; 6HR MAX TEMP:  13;

WEST BEND      SUNNY     14  -8  37 W14       30.54F WCI  -1
JUNEAU         SUNNY     12  -4  46 SW8       30.56S WCI   1
6HR MIN TEMP:  -7; 6HR MAX TEMP:  12;

$$

LSZ147-162-271900-
LAKE SUPERIOR

STATION/POSITION TIME  TEMP    WIND        PRES    WAVE
                       AIR SEA DIR/SP/G            HT/PER
                 (UTC) (F)     (DEG/KT/KT) (MB)    (FT/S)
DEVILS ISLAND    1800    7     230/ 17/ 20 1032.9F
PORT WING        1740   10     260/ 10/ 13 1032.2F
SAXON HARBOR     1700    9     240/  7/ 14 1031.8S
$$

LMZ867-665-643>646-271900-
LAKE MICHIGAN

STATION/POSITION TIME  TEMP    WIND        PRES    WAVE
                       AIR SEA DIR/SP/G            HT/PER
                 (UTC) (F)     (DEG/KT/KT) (MB)    (FT/S)


USA.gov is the U.S. government's official web portal to all federal, state and local government web resources and services.